WetterOnline ( https://www.wetteronline.de )

Wetter aktuell Leipzig

Aktuelles Wetter: Leipzig-Holzhausen (138m)

6-stündlich | Neueste Meldungen
Ortszeit Temperatur Wetter
Mo, 20.05. 8:00 15.5° C leicht bewölkt
Mo, 20.05. 2:00 15.3° C wolkig
So, 19.05. 20:00 23.2° C leicht bewölkt
So, 19.05. 14:00 22.8° C wolkig
So, 19.05. 8:00 14.4° C wolkenlos
So, 19.05. 2:00 9.5° C bewölkt
Sa, 18.05. 20:00 20.2° C wolkenlos
Sa, 18.05. 14:00 20.1° C fast wolkenlos
Ortszeit Temperatur Wetter
Mo, 20.05. 10:30 20.0° C leicht bewölkt
Mo, 20.05. 10:20 20.0° C leicht bewölkt
Mo, 20.05. 10:10 19.0° C leicht bewölkt
Mo, 20.05. 10:00 19.0° C wolkig
Mo, 20.05. 9:50 19.0° C wolkig
Mo, 20.05. 9:40 18.8° C wolkig
Mo, 20.05. 9:30 18.5° C bedeckt
Mo, 20.05. 9:00 16.9° C wolkig
Mo, 20.05. 8:30 16.2° C bewölkt
Mo, 20.05. 8:00 15.5° C leicht bewölkt
Mo, 20.05. 7:30 15.2° C bedeckt
Ortszeit Relative Feuchte Sichtweite
Mo, 20.05. 8:00 86% 13 km
Mo, 20.05. 2:00 83% 19 km
So, 19.05. 20:00 44% 45 km
So, 19.05. 14:00 46% 30 km
So, 19.05. 8:00 78% 11 km
So, 19.05. 2:00 99% 5.0 km
Sa, 18.05. 20:00 56% 30 km
Sa, 18.05. 14:00 53% 35 km
Ortszeit Relative Feuchte Sichtweite
Mo, 20.05. 10:30 69% 16 km
Mo, 20.05. 10:20 69% -
Mo, 20.05. 10:10 74% -
Mo, 20.05. 10:00 74% 12 km
Mo, 20.05. 9:50 74% -
Mo, 20.05. 9:40 74% -
Mo, 20.05. 9:30 78% 15 km
Mo, 20.05. 9:00 79% 14 km
Mo, 20.05. 8:30 82% 14 km
Mo, 20.05. 8:00 86% 13 km
Mo, 20.05. 7:30 85% 12 km
Ortszeit Niederschlagsmenge Niederschlagsart
Mo, 20.05. 8:00 0.0 l/m2 in 12 Std. -
Mo, 20.05. 2:00 0.0 l/m2 in 6 Std. -
So, 19.05. 20:00 0.0 l/m2 in 12 Std. -
So, 19.05. 14:00 0.0 l/m2 in 6 Std. -
So, 19.05. 8:00 0.0 l/m2 in 12 Std. -
So, 19.05. 2:00 0.0 l/m2 in 6 Std. -
Sa, 18.05. 20:00 0.0 l/m2 in 12 Std. -
Sa, 18.05. 14:00 0.0 l/m2 in 6 Std. -
Ortszeit Niederschlagsmenge Niederschlagsart
Mo, 20.05. 10:30 0.0 l/m2 in 1 Std. -
Mo, 20.05. 10:20 keine Meldung -
Mo, 20.05. 10:10 keine Meldung -
Mo, 20.05. 10:00 0.0 l/m2 in 1 Std. -
Mo, 20.05. 9:50 keine Meldung -
Mo, 20.05. 9:40 keine Meldung -
Mo, 20.05. 9:30 0.0 l/m2 in 1 Std. -
Mo, 20.05. 9:00 0.0 l/m2 in 1 Std. -
Mo, 20.05. 8:30 0.0 l/m2 in 1 Std. -
Mo, 20.05. 8:00 0.0 l/m2 in 1 Std. -
Mo, 20.05. 7:30 0.0 l/m2 in 1 Std. -
Ortszeit Stärke Spitze Richtung
km/h Bft. km/h Grad Sektor
Mo, 20.05. 8:00 7 2 14 10° N
Mo, 20.05. 2:00 4 1 11 70° O
So, 19.05. 20:00 6 1 26 50° NO
So, 19.05. 14:00 11 2 25 90° O
So, 19.05. 8:00 7 2 18 90° O
So, 19.05. 2:00 0 0 11 - -
Sa, 18.05. 20:00 7 2 22 50° NO
Sa, 18.05. 14:00 7 2 25 140° SO
Ortszeit Stärke Spitze Richtung
km/h Bft. km/h Grad Sektor
Mo, 20.05. 10:30 7 2 18 30° NO
Mo, 20.05. 10:20 7 2 - 30° NO
Mo, 20.05. 10:10 7 2 - 360° N
Mo, 20.05. 10:00 7 2 17 350° N
Mo, 20.05. 9:50 7 2 - 350° N
Mo, 20.05. 9:40 7 2 - 20° N
Mo, 20.05. 9:30 7 2 14 20° N
Mo, 20.05. 9:00 7 2 17 350° N
Mo, 20.05. 8:30 7 2 17 10° N
Mo, 20.05. 8:00 7 2 14 10° N
Mo, 20.05. 7:30 9 2 15 10° N
Ortszeit Untergrenze Bedeckung Gattung
total tief tief mittel hoch
Mo, 20.05. 8:00 3000 m 3/8 3/8 - - -
Mo, 20.05. 2:00 7200 m 8/8 0/8 - - -
So, 19.05. 20:00 8700 m 4/8 0/8 - - -
So, 19.05. 14:00 5100 m 7/8 7/8 - - -
So, 19.05. 8:00 - 0/8 0/8 - - -
So, 19.05. 2:00 6600 m 8/8 7/8 - - -
Sa, 18.05. 20:00 - 0/8 0/8 - - -
Sa, 18.05. 14:00 1170 m 1/8 1/8 - - -
Ortszeit Bedeckungsgrad in Achtel und Wolkenuntergrenze
Mo, 20.05. 10:30 2(2700m)
Mo, 20.05. 10:20 2(2700m)
Mo, 20.05. 10:10 1(2700m) 3(6600m)
Mo, 20.05. 10:00 1(2700m) 7(6300m)
Mo, 20.05. 9:50 1(2700m) 7(6300m)
Mo, 20.05. 9:40 1(2700m) 8(6000m) 8(6600m)
Mo, 20.05. 9:30 7(6300m) 8(6900m)
Mo, 20.05. 9:00 1(3600m) 7(7500m) 8(8700m)
Mo, 20.05. 8:30 4(3600m) 7(5100m) 8(8400m)
Mo, 20.05. 8:00 2(3000m) 3(3600m) 5(8400m)
Mo, 20.05. 7:30 6(3000m) 8(3600m)
Ortszeit Luftdruck NN (hPa) Tendenz (hPa in 3 Std.)
Mo, 20.05. 8:00 1002 + 0,3
Mo, 20.05. 2:00 1003 - 0,2
So, 19.05. 20:00 1002 - 0,6
So, 19.05. 14:00 1004 - 0,7
So, 19.05. 8:00 1006 + 0,2
So, 19.05. 2:00 1006 - 0,6
Sa, 18.05. 20:00 1005 - 0,2
Sa, 18.05. 14:00 1006 - 0,6
Ortszeit Luftdruck NN (hPa) Tendenz (hPa in 3 Std.)
Mo, 20.05. 10:30 1002 - 0,4
Mo, 20.05. 10:20 1002 keine Meldung
Mo, 20.05. 10:10 1002 keine Meldung
Mo, 20.05. 10:00 1002 - 0,2
Mo, 20.05. 9:50 1002 keine Meldung
Mo, 20.05. 9:40 1002 keine Meldung
Mo, 20.05. 9:30 1002 0,0
Mo, 20.05. 9:00 1002 0,0
Mo, 20.05. 8:30 1002 + 0,1
Mo, 20.05. 8:00 1002 + 0,3
Mo, 20.05. 7:30 1002 - 0,1
Ortszeit Schneehöhe (cm)
Mo, 20.05. 8:00 -
Mo, 20.05. 2:00 -
So, 19.05. 20:00 -
So, 19.05. 14:00 -
So, 19.05. 8:00 -
So, 19.05. 2:00 -
Sa, 18.05. 20:00 -
Sa, 18.05. 14:00 -
Ortszeit Schneehöhe (cm)
Mo, 20.05. 10:30 -
Mo, 20.05. 10:20 -
Mo, 20.05. 10:10 -
Mo, 20.05. 10:00 -
Mo, 20.05. 9:50 -
Mo, 20.05. 9:40 -
Mo, 20.05. 9:30 -
Mo, 20.05. 9:00 -
Mo, 20.05. 8:30 -
Mo, 20.05. 8:00 -
Mo, 20.05. 7:30 -
Link zu dieser Seite / Seite empfehlen

Das Wetter in ...